Date,Installs,Update checks
2017-09-15,6,3
2017-09-16,17,6
2017-09-17,3,10
2017-09-18,5,11
2017-09-19,9,14
2017-09-20,7,16
2017-09-21,11,15
2017-09-22,5,13
2017-09-23,6,18
2017-09-24,19,19
2017-09-25,36,23
2017-09-26,35,43
2017-09-27,33,46
2017-09-28,30,54
2017-09-29,36,56
2017-09-30,35,65
2017-10-01,30,65
2017-10-02,65,87
2017-10-03,56,88
2017-10-04,56,95
2017-10-05,43,108
2017-10-06,71,101
2017-10-07,87,110
2017-10-08,121,127
2017-10-09,92,155
2017-10-10,97,198
2017-10-11,101,207
2017-10-12,82,228
2017-10-13,67,255
2017-10-14,71,223
2017-10-15,74,241
2017-10-16,70,295
2017-10-17,43,296
2017-10-18,63,298
2017-10-19,54,312
2017-10-20,53,297
2017-10-21,58,290
2017-10-22,59,322
2017-10-23,40,363
2017-10-24,45,326
2017-10-25,44,344
2017-10-26,49,343
2017-10-27,48,334
2017-10-28,27,336
2017-10-29,36,315
2017-10-30,41,365
2017-10-31,44,345
2017-11-01,63,328
2017-11-02,85,376
2017-11-03,56,341
2017-11-04,56,328
2017-11-05,56,367
2017-11-06,22,252
2017-11-07,32,418
2017-11-08,44,380
2017-11-09,46,428
2017-11-10,36,422
2017-11-11,39,392
2017-11-12,36,379
2017-11-13,53,434
2017-11-14,97,453
2017-11-15,81,454
2017-11-16,76,476
2017-11-17,76,446
2017-11-18,79,419
2017-11-19,109,449
2017-11-20,91,517
2017-11-21,98,528
2017-11-22,69,530
2017-11-23,62,547
2017-11-24,55,526
2017-11-25,74,482
2017-11-26,72,492
2017-11-27,53,552
2017-11-28,55,549
2017-11-29,39,544
2017-11-30,48,516
2017-12-01,36,516
2017-12-02,28,444
2017-12-03,24,510
2017-12-04,33,544
2017-12-05,29,536
2017-12-06,25,563
2017-12-07,26,547
2017-12-08,35,541
2017-12-09,39,470
2017-12-10,46,497
2017-12-11,34,577
2017-12-12,29,545
2017-12-13,29,554
2017-12-14,38,562
2017-12-15,45,534
2017-12-16,46,489
2017-12-17,25,524
2017-12-18,27,577
2017-12-19,36,550
2017-12-20,35,563
2017-12-21,33,547
2017-12-22,23,538
2017-12-23,40,470
2017-12-24,48,492
2017-12-25,26,519
2017-12-26,24,557
2017-12-27,25,543
2017-12-28,26,557
2017-12-29,32,511
2017-12-30,27,474
2017-12-31,20,453
2018-01-01,27,485
2018-01-02,34,542
2018-01-03,36,527
2018-01-04,26,538
2018-01-05,23,531
2018-01-06,35,515
2018-01-07,21,493
2018-01-08,28,588
2018-01-09,35,582
2018-01-10,28,551
2018-01-11,24,580
2018-01-12,26,537
2018-01-13,20,490
2018-01-14,34,505
2018-01-15,24,551
2018-01-16,22,585
2018-01-17,27,630
2018-01-18,35,573
2018-01-19,29,587
2018-01-20,27,530
2018-01-21,26,507
2018-01-22,34,627
2018-01-23,26,581
2018-01-24,18,588
2018-01-25,26,578
2018-01-26,26,544
2018-01-27,29,509
2018-01-28,24,513
2018-01-29,23,591
2018-01-30,28,569
2018-01-31,29,567
2018-02-01,20,581
2018-02-02,30,588
2018-02-03,26,526
2018-02-04,28,490
2018-02-05,17,588
2018-02-06,10,552
2018-02-07,25,567
2018-02-08,11,528
2018-02-09,20,574
2018-02-10,13,512
2018-02-11,18,507
2018-02-12,11,553
2018-02-13,17,497
2018-02-14,16,541
2018-02-15,18,506
2018-02-16,17,450
2018-02-17,16,455
2018-02-18,23,427
2018-02-19,20,507
2018-02-20,24,485
2018-02-21,21,499
2018-02-22,18,559
2018-02-23,20,537
2018-02-24,17,510
2018-02-25,13,452
2018-02-26,15,561
2018-02-27,7,550
2018-02-28,14,527
2018-03-01,21,508
2018-03-02,11,505
2018-03-03,4,434
2018-03-04,14,425
2018-03-05,14,539
2018-03-06,6,477
2018-03-07,9,533
2018-03-08,9,507
2018-03-09,9,508
2018-03-10,6,435
2018-03-11,6,458
2018-03-12,6,518
2018-03-13,11,490
2018-03-14,9,491
2018-03-15,10,509
2018-03-16,6,481
2018-03-17,6,431
2018-03-18,9,458
2018-03-19,7,503
2018-03-20,10,501
2018-03-21,12,491
2018-03-22,10,497
2018-03-23,12,470
2018-03-24,18,410
2018-03-25,6,409
2018-03-26,5,476
2018-03-27,8,493
2018-03-28,9,452
2018-03-29,13,474
2018-03-30,12,408
2018-03-31,9,418
2018-04-01,12,397
2018-04-02,13,501
2018-04-03,8,464
2018-04-04,5,480
2018-04-05,10,426
2018-04-06,9,413
2018-04-07,10,389
2018-04-08,11,415
2018-04-09,10,463
2018-04-10,12,450
2018-04-11,19,473
2018-04-12,11,444
2018-04-13,4,431
2018-04-14,7,383
2018-04-15,6,398
2018-04-16,1,494
2018-04-17,18,448
2018-04-18,13,450
2018-04-19,16,446
2018-04-20,4,424
2018-04-21,10,385
2018-04-22,9,401
2018-04-23,16,462
2018-04-24,12,431
2018-04-25,12,422
2018-04-26,11,421
2018-04-27,19,419
2018-04-28,7,382
2018-04-29,11,351
2018-04-30,10,401
2018-05-01,10,367
2018-05-02,8,407
2018-05-03,2,414
2018-05-04,10,383
2018-05-05,7,351
2018-05-06,14,360
2018-05-07,16,406
2018-05-08,11,412
2018-05-09,12,403
2018-05-10,17,397
2018-05-11,12,401
2018-05-12,12,340
2018-05-13,17,342
2018-05-14,7,420
2018-05-15,8,372
2018-05-16,13,396
2018-05-17,11,399
2018-05-18,16,377
2018-05-19,20,264
2018-05-20,19,376
2018-05-21,25,394
2018-05-22,12,408
2018-05-23,22,413
2018-05-24,10,410
2018-05-25,14,403
2018-05-26,11,326
2018-05-27,9,355
2018-05-28,4,373
2018-05-29,7,402
2018-05-30,4,376
2018-05-31,17,400
2018-06-01,9,365
2018-06-02,21,293
2018-06-03,23,330
2018-06-04,15,340
2018-06-05,12,350
2018-06-06,15,349
2018-06-07,18,344
2018-06-08,18,325
2018-06-09,15,294
2018-06-10,24,289
2018-06-11,16,354
2018-06-12,23,341
2018-06-13,22,346
2018-06-14,13,341
2018-06-15,20,318
2018-06-16,20,290
2018-06-17,20,290
2018-06-18,8,298
2018-06-19,9,310
2018-06-20,8,284
2018-06-21,19,267
2018-06-22,13,316
2018-06-23,8,280
2018-06-24,8,312
2018-06-25,7,314
2018-06-26,10,332
2018-06-27,13,311
2018-06-28,10,309
2018-06-29,8,312
2018-06-30,9,251
2018-07-01,10,265
2018-07-02,2,306
2018-07-03,4,308
2018-07-04,5,307
2018-07-05,10,313
2018-07-06,12,273
2018-07-07,9,258
2018-07-08,5,262
2018-07-09,9,328
2018-07-10,11,309
2018-07-11,11,284
2018-07-12,9,302
2018-07-13,10,272
2018-07-14,7,236
2018-07-15,6,255
2018-07-16,8,312
2018-07-17,5,291
2018-07-18,3,303
2018-07-19,1,291
2018-07-20,4,289
2018-07-21,13,243
2018-07-22,10,252
2018-07-23,11,291
2018-07-24,3,285
2018-07-25,8,263
2018-07-26,5,273
2018-07-27,7,272
2018-07-28,5,237
2018-07-29,5,243
2018-07-30,9,279
2018-07-31,6,267
2018-08-01,10,277
2018-08-02,9,279
2018-08-03,9,263
2018-08-04,12,216
2018-08-05,13,261
2018-08-06,8,283
2018-08-07,6,292
2018-08-08,5,279
2018-08-09,7,293
2018-08-10,7,268
2018-08-11,7,244
2018-08-12,5,214
2018-08-13,4,287
2018-08-14,2,262
2018-08-15,1,278
2018-08-16,4,269
2018-08-17,7,262
2018-08-18,8,213
2018-08-19,7,230
2018-08-20,7,272
2018-08-21,6,260
2018-08-22,4,251
2018-08-23,6,257
2018-08-24,6,251
2018-08-25,7,231
2018-08-26,8,223
2018-08-27,2,265
2018-08-28,2,259
2018-08-29,3,266
2018-08-30,1,258
2018-08-31,2,249
2018-09-01,3,215
2018-09-02,3,213
2018-09-03,3,252
2018-09-04,6,264
2018-09-05,5,271
2018-09-06,7,250
2018-09-07,7,237
2018-09-08,7,218
2018-09-09,4,230
2018-09-10,6,265
2018-09-11,2,266
2018-09-12,1,249
2018-09-13,1,260
2018-09-14,3,208
2018-09-15,4,221
2018-09-16,4,216
2018-09-17,8,265
2018-09-18,8,253
2018-09-19,5,248
2018-09-20,3,262
2018-09-21,3,226
2018-09-22,6,171
2018-09-23,3,228
2018-09-24,3,196
2018-09-25,3,238
2018-09-26,2,249
2018-09-27,8,249
2018-09-28,6,238
2018-09-29,7,200
2018-09-30,5,203
2018-10-01,4,216
2018-10-02,6,199
2018-10-03,5,215
2018-10-04,4,209
2018-10-05,4,204
2018-10-06,8,193
2018-10-07,6,188
2018-10-08,7,239
2018-10-09,5,236
2018-10-10,6,252
2018-10-11,2,234
2018-10-12,4,209
2018-10-13,3,210
2018-10-14,1,203
2018-10-15,3,246
2018-10-16,1,222
2018-10-17,2,244
2018-10-18,3,227
2018-10-19,4,215
2018-10-20,4,185
2018-10-21,2,188
2018-10-22,3,243
2018-10-23,2,221
2018-10-24,2,232
2018-10-25,5,230
2018-10-26,7,205
2018-10-27,3,182
2018-10-28,5,209
2018-10-29,9,226
2018-10-30,7,221
2018-10-31,8,229
2018-11-01,4,193
2018-11-02,5,229
2018-11-03,5,200
2018-11-04,4,207
2018-11-05,2,242
2018-11-06,4,217
2018-11-07,4,218
2018-11-08,5,208
2018-11-09,7,217
2018-11-10,7,196
2018-11-11,8,187
2018-11-12,7,229
2018-11-13,5,218
2018-11-14,4,209
2018-11-15,4,215
2018-11-16,2,203
2018-11-17,2,191
2018-11-18,6,174
2018-11-19,6,228
2018-11-20,4,203
2018-11-21,2,193
2018-11-22,3,206
2018-11-23,2,205
2018-11-24,7,183
2018-11-25,2,171
2018-11-26,3,236
2018-11-27,1,193
2018-11-28,6,211
2018-11-29,0,206
2018-11-30,0,197
2018-12-01,5,189
2018-12-02,2,188
2018-12-03,1,203
2018-12-04,0,201
2018-12-05,0,204
2018-12-06,0,222
2018-12-07,2,194
2018-12-08,5,185
2018-12-09,4,170
2018-12-10,2,212
2018-12-11,2,197
2018-12-12,0,182
2018-12-13,0,203
2018-12-14,2,192
2018-12-15,5,157
2018-12-16,5,160
2018-12-17,0,225
2018-12-18,3,199
2018-12-19,2,210
2018-12-20,1,179
2018-12-21,1,187
2018-12-22,3,165
2018-12-23,1,158
2018-12-24,0,172
2018-12-25,1,155
2018-12-26,4,173
2018-12-27,3,172
2018-12-28,4,171
2018-12-29,0,149
2018-12-30,1,167
2018-12-31,1,147
2019-01-01,2,170
2019-01-02,1,182
2019-01-03,0,194
2019-01-04,2,189
2019-01-05,4,161
2019-01-06,1,160
2019-01-07,0,197
2019-01-08,0,196
2019-01-09,2,198
2019-01-10,1,164
2019-01-11,0,169
2019-01-12,1,169
2019-01-13,2,155
2019-01-14,1,181
2019-01-15,1,187
2019-01-16,1,182
2019-01-17,1,179
2019-01-18,1,181
2019-01-19,2,164
2019-01-20,3,132
2019-01-21,0,179
2019-01-22,4,180
2019-01-23,2,164
2019-01-24,4,172
2019-01-25,8,154
2019-01-26,4,147
2019-01-27,8,153
2019-01-28,4,159
2019-01-29,1,171
2019-01-30,1,165
2019-01-31,3,155
2019-02-01,4,153
2019-02-02,6,133
2019-02-03,4,132
2019-02-04,1,119
2019-02-05,1,133
2019-02-06,2,124
2019-02-07,4,125
2019-02-08,2,121
2019-02-09,3,122
2019-02-10,2,140
2019-02-11,1,159
2019-02-12,2,159
2019-02-13,2,176
2019-02-14,1,159
2019-02-15,1,153
2019-02-16,1,147
2019-02-17,1,142
2019-02-18,2,164
2019-02-19,5,160
2019-02-20,2,154
2019-02-21,0,169
2019-02-22,3,159
2019-02-23,3,131
2019-02-24,1,135
2019-02-25,2,178
2019-02-26,1,178
2019-02-27,1,161
2019-02-28,2,159
2019-03-01,4,173
2019-03-02,1,158
2019-03-03,0,138
2019-03-04,0,166
2019-03-05,1,167
2019-03-06,2,158
2019-03-07,0,160
2019-03-08,0,167
2019-03-09,1,126
2019-03-10,0,133
2019-03-11,3,154
2019-03-12,1,159
2019-03-13,1,157
2019-03-14,0,145
2019-03-15,1,153
2019-03-16,1,141
2019-03-17,3,126
2019-03-18,4,158
2019-03-19,1,161
2019-03-20,0,158
2019-03-21,1,157
2019-03-22,2,158
2019-03-23,3,135
2019-03-24,2,119
2019-03-25,1,151
2019-03-26,2,142
2019-03-27,1,147
2019-03-28,2,143
2019-03-29,0,146
2019-03-30,0,134
2019-03-31,0,134
2019-04-01,0,141
2019-04-02,1,152
2019-04-03,3,153
2019-04-04,1,145
2019-04-05,1,129
2019-04-06,0,111
2019-04-07,0,121
2019-04-08,1,153
2019-04-09,1,136
2019-04-10,2,152
2019-04-11,2,146
2019-04-12,2,153
2019-04-13,2,126
2019-04-14,2,126
2019-04-15,2,153
2019-04-16,3,146
2019-04-17,1,144
2019-04-18,0,152
2019-04-19,1,146
2019-04-20,2,137
2019-04-21,3,122
2019-04-22,2,160
2019-04-23,2,127
2019-04-24,1,163
2019-04-25,0,126
2019-04-26,1,139
2019-04-27,1,129
2019-04-28,1,135
2019-04-29,3,143
2019-04-30,2,144
2019-05-01,1,115
2019-05-02,2,139
2019-05-03,0,135
2019-05-04,3,115
2019-05-05,1,137
2019-05-06,1,135
2019-05-07,0,148
2019-05-08,0,123
2019-05-09,1,125
2019-05-10,4,126
2019-05-11,4,108
2019-05-12,4,115
2019-05-13,2,135
2019-05-14,1,123
2019-05-15,2,141
2019-05-16,4,148
2019-05-17,3,115
2019-05-18,7,101
2019-05-19,1,120
2019-05-20,1,143
2019-05-21,1,141
2019-05-22,0,134
2019-05-23,2,119
2019-05-24,1,126
2019-05-25,1,117
2019-05-26,4,112
2019-05-27,2,129
2019-05-28,1,120
2019-05-29,3,126
2019-05-30,0,129
2019-05-31,1,109
2019-06-01,2,104
2019-06-02,1,109
2019-06-03,1,116
2019-06-04,0,131
2019-06-05,2,99
2019-06-06,2,119
2019-06-07,0,110
2019-06-08,0,95
2019-06-09,0,110
2019-06-10,1,125
2019-06-11,0,118
2019-06-12,2,117
2019-06-13,1,125
2019-06-14,1,123
2019-06-15,1,100
2019-06-16,2,89
2019-06-17,1,99
2019-06-18,1,100
2019-06-19,3,100
2019-06-20,3,108
2019-06-21,4,106
2019-06-22,4,83
2019-06-23,6,88
2019-06-24,6,113
2019-06-25,5,99
2019-06-26,4,98
2019-06-27,2,112
2019-06-28,2,100
2019-06-29,3,90
2019-06-30,5,93
2019-07-01,0,109
2019-07-02,1,97
2019-07-03,1,105
2019-07-04,0,100
2019-07-05,1,107
2019-07-06,0,84
2019-07-07,3,90
2019-07-08,1,111
2019-07-09,0,109
2019-07-10,2,109
2019-07-11,8,106
2019-07-12,8,102
2019-07-13,6,102
2019-07-14,6,88
2019-07-15,6,107
2019-07-16,3,94
2019-07-17,1,102
2019-07-18,1,95
2019-07-19,0,100
2019-07-20,0,94
2019-07-21,0,89
2019-07-22,2,105
2019-07-23,1,108
2019-07-24,1,102
2019-07-25,1,90
2019-07-26,1,93
2019-07-27,1,72
2019-07-28,1,85
2019-07-29,1,100
2019-07-30,1,85
2019-07-31,4,101
2019-08-01,3,98
2019-08-02,2,90
2019-08-03,2,77
2019-08-04,2,75
2019-08-05,0,110
2019-08-06,1,98
2019-08-07,2,107
2019-08-08,3,93
2019-08-09,2,91
2019-08-10,3,75
2019-08-11,3,76
2019-08-12,4,71
2019-08-13,4,85
2019-08-14,2,93
2019-08-15,2,90
2019-08-16,1,88
2019-08-17,1,67
2019-08-18,2,79
2019-08-19,2,98
2019-08-20,3,92
2019-08-21,3,96
2019-08-22,4,97
2019-08-23,5,86
2019-08-24,0,74
2019-08-25,2,81
2019-08-26,5,96
2019-08-27,1,109
2019-08-28,3,94
2019-08-29,2,99
2019-08-30,3,92
2019-08-31,2,81
2019-09-01,2,81
2019-09-02,2,103
2019-09-03,3,88
2019-09-04,4,93
2019-09-05,2,91
2019-09-06,1,95
2019-09-07,2,64
2019-09-08,1,89
2019-09-09,6,90
2019-09-10,3,91
2019-09-11,6,103
2019-09-12,1,98
2019-09-13,1,83
2019-09-14,0,79
2019-09-15,2,76
2019-09-16,1,90
2019-09-17,1,99
2019-09-18,2,102
2019-09-19,0,99
2019-09-20,1,96
2019-09-21,2,88
2019-09-22,1,78
2019-09-23,1,97
2019-09-24,2,96
2019-09-25,2,109
2019-09-26,3,99
2019-09-27,5,86
2019-09-28,4,83
2019-09-29,0,75
2019-09-30,2,98
2019-10-01,1,84
2019-10-02,2,72
2019-10-03,2,73
2019-10-04,1,73
2019-10-05,0,74
2019-10-06,1,74
2019-10-07,2,81
2019-10-08,2,95
2019-10-09,0,98
2019-10-10,1,90
2019-10-11,1,85
2019-10-12,5,88
2019-10-13,4,82
2019-10-14,1,100
2019-10-15,1,95
2019-10-16,1,88
2019-10-17,1,89
2019-10-18,1,89
2019-10-19,1,70
2019-10-20,2,85
2019-10-21,2,86
2019-10-22,1,92
2019-10-23,2,93
2019-10-24,2,95
2019-10-25,1,87
2019-10-26,2,78
2019-10-27,3,80
2019-10-28,3,99
2019-10-29,4,93
2019-10-30,2,83
2019-10-31,2,95
2019-11-01,1,91
2019-11-02,2,77
2019-11-03,3,76
2019-11-04,3,85
2019-11-05,3,89
2019-11-06,5,79
2019-11-07,2,87
2019-11-08,2,76
2019-11-09,0,69
2019-11-10,0,71
2019-11-11,1,103
2019-11-12,0,89
2019-11-13,3,88
2019-11-14,2,95
2019-11-15,3,74
2019-11-16,2,73
2019-11-17,2,60
2019-11-18,0,94
2019-11-19,2,91
2019-11-20,4,78
2019-11-21,6,89
2019-11-22,5,91
2019-11-23,1,72
2019-11-24,0,65
2019-11-25,1,86
2019-11-26,0,89
2019-11-27,1,82
2019-11-28,2,74
2019-11-29,1,64
2019-11-30,1,80
2019-12-01,0,79
2019-12-02,0,80
2019-12-03,0,75
2019-12-04,0,87
2019-12-05,0,80
2019-12-06,2,66
2019-12-07,0,69
2019-12-08,1,83
2019-12-09,0,94
2019-12-10,1,84
2019-12-11,1,88
2019-12-12,0,88
2019-12-13,2,83
2019-12-14,0,89
2019-12-15,2,77
2019-12-16,2,81
2019-12-17,2,94
2019-12-18,2,77
2019-12-19,1,72
2019-12-20,1,91
2019-12-21,0,74
2019-12-22,0,84
2019-12-23,1,90
2019-12-24,2,85
2019-12-25,1,84
2019-12-26,4,85
2019-12-27,5,90
2019-12-28,5,76
2019-12-29,3,72
2019-12-30,2,90
2019-12-31,2,76
2020-01-01,1,74
2020-01-02,1,81
2020-01-03,1,86
2020-01-04,1,69
2020-01-05,0,75
2020-01-06,0,86
2020-01-07,0,93
2020-01-08,1,80
2020-01-09,0,92
2020-01-10,0,90
2020-01-11,2,70
2020-01-12,2,70
2020-01-13,0,89
2020-01-14,1,79
2020-01-15,1,96
2020-01-16,1,90
2020-01-17,1,65
2020-01-18,0,76
2020-01-19,0,78
2020-01-20,1,87
2020-01-21,1,70
2020-01-22,2,74
2020-01-23,0,71
2020-01-24,1,62
2020-01-25,6,61
2020-01-26,0,74
2020-01-27,0,78
2020-01-28,2,69
2020-01-29,0,75
2020-01-30,1,68
2020-01-31,2,72
2020-02-01,1,79
2020-02-02,3,69
2020-02-03,0,85
2020-02-04,1,80
2020-02-05,0,85
2020-02-06,3,86
2020-02-07,5,74
2020-02-08,4,26
2020-02-09,5,36
2020-02-10,4,96
2020-02-11,2,85
2020-02-12,2,96
2020-02-13,0,81
2020-02-14,0,69
2020-02-15,1,78
2020-02-16,3,73
2020-02-17,1,92
2020-02-18,1,86
2020-02-19,1,85
2020-02-20,3,83
2020-02-21,2,67
2020-02-22,3,78
2020-02-23,3,69
2020-02-24,1,89
2020-02-25,0,85
2020-02-26,2,73
2020-02-27,1,89
2020-02-28,2,79
2020-02-29,1,73
2020-03-01,1,65
2020-03-02,3,81
2020-03-03,0,89
2020-03-04,2,81
2020-03-05,3,73
2020-03-06,2,79
2020-03-07,3,65
2020-03-08,4,66
2020-03-09,8,85
2020-03-10,2,89
2020-03-11,8,91
2020-03-12,12,91
2020-03-13,3,79
2020-03-14,2,63
2020-03-15,2,71
2020-03-16,3,78
2020-03-17,3,83
2020-03-18,1,90
2020-03-19,1,88
2020-03-20,3,85
2020-03-21,1,76
2020-03-22,1,56
2020-03-23,2,91
2020-03-24,5,85
2020-03-25,2,73
2020-03-26,4,75
2020-03-27,2,86
2020-03-28,2,74
2020-03-29,3,78
2020-03-30,0,81
2020-03-31,1,79
2020-04-01,0,78
2020-04-02,1,78
2020-04-03,2,81
2020-04-04,4,64
2020-04-05,0,75
2020-04-06,2,80
2020-04-07,2,80
2020-04-08,1,81
2020-04-09,1,83
2020-04-10,3,88
2020-04-11,2,73
2020-04-12,2,85
2020-04-13,0,80
2020-04-14,2,77
2020-04-15,3,86
2020-04-16,1,87
2020-04-17,1,75
2020-04-18,4,73
2020-04-19,1,81
2020-04-20,2,89
2020-04-21,2,90
2020-04-22,3,82
2020-04-23,3,91
2020-04-24,2,85
2020-04-25,2,71
2020-04-26,1,78
2020-04-27,3,82
2020-04-28,3,69
2020-04-29,1,83
2020-04-30,3,93
2020-05-01,2,80
2020-05-02,0,68
2020-05-03,0,64
2020-05-04,1,77
2020-05-05,2,80
2020-05-06,2,81
2020-05-07,1,77
2020-05-08,4,78
2020-05-09,0,67
2020-05-10,2,75
2020-05-11,2,79
2020-05-12,0,93
2020-05-13,1,73
2020-05-14,4,76
2020-05-15,2,70
2020-05-16,1,59
2020-05-17,1,83
2020-05-18,2,82
2020-05-19,0,77
2020-05-20,1,68
2020-05-21,1,71
2020-05-22,3,73
2020-05-23,1,69
2020-05-24,1,57
2020-05-25,4,68
2020-05-26,1,77
2020-05-27,1,85
2020-05-28,1,62
2020-05-29,3,76
2020-05-30,1,75
2020-05-31,1,66
2020-06-01,2,59
2020-06-02,3,92
2020-06-03,2,66
2020-06-04,0,69
2020-06-05,1,64
2020-06-06,3,62
2020-06-07,2,72
2020-06-08,1,77
2020-06-09,1,79
2020-06-10,2,69
2020-06-11,2,74
2020-06-12,2,75
2020-06-13,3,54
2020-06-14,1,62
2020-06-15,2,79
2020-06-16,3,68
2020-06-17,0,73
2020-06-18,0,65
2020-06-19,0,71
2020-06-20,1,65
2020-06-21,2,66
2020-06-22,0,76
2020-06-23,0,68
2020-06-24,0,84
2020-06-25,0,73
2020-06-26,1,76
2020-06-27,0,78
2020-06-28,0,66
2020-06-29,0,77
2020-06-30,1,78
2020-07-01,0,71
2020-07-02,2,73
2020-07-03,2,59
2020-07-04,0,57
2020-07-05,1,60
2020-07-06,1,69
2020-07-07,1,66
2020-07-08,2,68
2020-07-09,1,67
2020-07-10,0,65
2020-07-11,1,55
2020-07-12,0,56
2020-07-13,0,59
2020-07-14,0,69
2020-07-15,0,63
2020-07-16,1,64
2020-07-17,2,66
2020-07-18,1,64
2020-07-19,2,76
2020-07-20,1,74
2020-07-21,1,62
2020-07-22,0,61
2020-07-23,1,59
2020-07-24,2,58
2020-07-25,0,54
2020-07-26,0,54
2020-07-27,1,73
2020-07-28,0,63
2020-07-29,0,52
2020-07-30,0,64
2020-07-31,1,52
2020-08-01,2,56
2020-08-02,0,55
2020-08-03,0,67
2020-08-04,0,58
2020-08-05,0,67
2020-08-06,1,51
2020-08-07,3,55
2020-08-08,0,55
2020-08-09,0,51
2020-08-10,0,52
2020-08-11,1,59
2020-08-12,1,60
2020-08-13,2,57
2020-08-14,1,59
2020-08-15,3,56
2020-08-16,2,49
2020-08-17,0,70
2020-08-18,3,48
2020-08-19,2,65
2020-08-20,2,60
2020-08-21,2,58
2020-08-22,4,53
2020-08-23,1,51
2020-08-24,0,45
2020-08-25,0,64
2020-08-26,1,67
2020-08-27,1,56
2020-08-28,1,63
2020-08-29,0,53
2020-08-30,0,63
2020-08-31,0,62
2020-09-01,1,58
2020-09-02,0,61
2020-09-03,0,67
2020-09-04,0,59
2020-09-05,1,52
2020-09-06,2,53
2020-09-07,2,61
2020-09-08,1,52
2020-09-09,1,67
2020-09-10,1,53
2020-09-11,1,64
2020-09-12,1,54
2020-09-13,2,56
2020-09-14,3,61
2020-09-15,1,49
2020-09-16,0,62
2020-09-17,0,43
2020-09-18,0,59
2020-09-19,0,43
2020-09-20,0,43
2020-09-21,0,51
2020-09-22,1,57
2020-09-23,2,60
2020-09-24,2,55
2020-09-25,2,58
2020-09-26,3,46
2020-09-27,2,57
2020-09-28,1,59
2020-09-29,3,57
2020-09-30,0,59
2020-10-01,1,52
2020-10-02,2,43
2020-10-03,2,40
2020-10-04,1,58
2020-10-05,1,48
2020-10-06,1,45
2020-10-07,3,48
2020-10-08,0,57
2020-10-09,0,46
2020-10-10,1,50
2020-10-11,0,53
2020-10-12,0,54
2020-10-13,0,67
2020-10-14,0,59
2020-10-15,3,61
2020-10-16,3,55
2020-10-17,3,50
2020-10-18,0,56
2020-10-19,0,63
2020-10-20,1,55
2020-10-21,0,53
2020-10-22,1,59
2020-10-23,3,65
2020-10-24,3,46
2020-10-25,3,63
2020-10-26,0,46
2020-10-27,1,58
2020-10-28,1,49
2020-10-29,2,55
2020-10-30,2,52
2020-10-31,3,47
2020-11-01,1,53
2020-11-02,1,53
2020-11-03,0,68
2020-11-04,0,56
2020-11-05,0,53
2020-11-06,0,54
2020-11-07,1,50
2020-11-08,0,57
2020-11-09,2,48
2020-11-10,1,57
2020-11-11,1,66
2020-11-12,0,53
2020-11-13,0,53
2020-11-14,0,44
2020-11-15,2,53
2020-11-16,2,57
2020-11-17,2,66
2020-11-18,0,49
2020-11-19,1,53
2020-11-20,0,61
2020-11-21,1,55
2020-11-22,3,48
2020-11-23,0,59
2020-11-24,2,50
2020-11-25,1,61
2020-11-26,1,48
2020-11-27,1,56
2020-11-28,2,46
2020-11-29,2,57
2020-11-30,2,55
2020-12-01,0,52
2020-12-02,0,47
2020-12-03,1,53
2020-12-04,3,52
2020-12-05,1,57
2020-12-06,0,49
2020-12-07,1,60
2020-12-08,1,68
2020-12-09,2,64
2020-12-10,0,51
2020-12-11,2,55
2020-12-12,2,44
2020-12-13,2,53
2020-12-14,3,61
2020-12-15,3,59
2020-12-16,0,59
2020-12-17,2,52
2020-12-18,1,70
2020-12-19,2,46
2020-12-20,3,43
2020-12-21,4,64
2020-12-22,1,51
2020-12-23,2,66
2020-12-24,0,54
2020-12-25,0,48
2020-12-26,2,54
2020-12-27,1,48
2020-12-28,2,58
2020-12-29,2,49
2020-12-30,0,50
2020-12-31,1,48
2021-01-01,0,35
2021-01-02,1,43
2021-01-03,0,48
2021-01-04,1,49
2021-01-05,2,51
2021-01-06,3,55
2021-01-07,1,55
2021-01-08,1,61
2021-01-09,0,51
2021-01-10,3,58
2021-01-11,2,47
2021-01-12,0,63
2021-01-13,1,54
2021-01-14,3,51
2021-01-15,4,63
2021-01-16,2,50
2021-01-17,2,46
2021-01-18,0,57
2021-01-19,0,58
2021-01-20,0,69
2021-01-21,1,59
2021-01-22,4,59
2021-01-23,5,48
2021-01-24,6,51
2021-01-25,0,60
2021-01-26,1,59
2021-01-27,2,55
2021-01-28,1,50
2021-01-29,2,62
2021-01-30,1,42
2021-01-31,2,45
2021-02-01,2,59
2021-02-02,3,61
2021-02-03,5,60
2021-02-04,2,64
2021-02-05,0,64
2021-02-06,3,53
2021-02-07,2,54
2021-02-08,3,49
2021-02-09,1,60
2021-02-10,2,53
2021-02-11,0,45
2021-02-12,3,46
2021-02-13,1,39
2021-02-14,1,27
2021-02-15,1,59
2021-02-16,0,61
2021-02-17,0,64
2021-02-18,1,62
2021-02-19,1,59
2021-02-20,0,56
2021-02-21,1,56
2021-02-22,0,62
2021-02-23,0,60
2021-02-24,1,55
2021-02-25,2,63
2021-02-26,0,56
2021-02-27,1,58
2021-02-28,1,64
2021-03-01,0,62
2021-03-02,1,68
2021-03-03,0,78
2021-03-04,0,73
2021-03-05,1,61
2021-03-06,0,63
2021-03-07,1,67
2021-03-08,0,60
2021-03-09,1,58
2021-03-10,2,62
2021-03-11,2,60
2021-03-12,3,50
2021-03-13,2,54
2021-03-14,0,53
2021-03-15,0,56
2021-03-16,1,69
2021-03-17,0,51
2021-03-18,0,50
2021-03-19,1,48
2021-03-20,0,56
2021-03-21,0,47
2021-03-22,0,52
2021-03-23,0,36
2021-03-24,1,56
2021-03-25,0,59
2021-03-26,1,53
2021-03-27,1,41
2021-03-28,0,43
2021-03-29,0,40
2021-03-30,0,61
2021-03-31,2,45
2021-04-01,0,51
2021-04-02,0,57
2021-04-03,0,40
2021-04-04,2,37
2021-04-05,0,38
2021-04-06,0,48
2021-04-07,1,47
2021-04-08,0,49
2021-04-09,1,51
2021-04-10,0,41
2021-04-11,3,52
2021-04-12,0,31
2021-04-13,1,36
2021-04-14,0,36
2021-04-15,1,38
2021-04-16,0,68
2021-04-17,1,53
2021-04-18,0,70
2021-04-19,0,59
2021-04-20,0,61
2021-04-21,0,69
2021-04-22,0,60
2021-04-23,0,65
2021-04-24,0,61
2021-04-25,0,57
2021-04-26,0,59
2021-04-27,1,72
2021-04-28,0,61
2021-04-29,0,55
2021-04-30,0,50
2021-05-01,0,54
2021-05-02,0,53
2021-05-03,3,47
2021-05-04,1,50
2021-05-05,0,65
2021-05-06,0,53
2021-05-07,0,60
2021-05-08,0,54
2021-05-09,0,61
2021-05-10,0,57
2021-05-11,0,56
2021-05-12,3,67
2021-05-13,0,57
2021-05-14,2,58
2021-05-15,4,59
2021-05-16,1,60
2021-05-17,1,68
2021-05-18,0,65
2021-05-19,0,67
2021-05-20,1,60
2021-05-21,0,59
2021-05-22,1,55
2021-05-23,0,59
2021-05-24,0,61
2021-05-25,2,62
2021-05-26,0,59
2021-05-27,0,55
2021-05-28,0,64
2021-05-29,0,51
2021-05-30,1,44
2021-05-31,0,58
2021-06-01,0,48
2021-06-02,1,62
2021-06-03,0,51
2021-06-04,0,48
2021-06-05,0,32
2021-06-06,0,51
2021-06-07,1,54
2021-06-08,3,55
2021-06-09,2,54
2021-06-10,0,56
2021-06-11,1,51
2021-06-12,2,42
2021-06-13,1,57
2021-06-14,0,59
2021-06-15,0,58
2021-06-16,1,62
2021-06-17,1,60
2021-06-18,2,50
2021-06-19,1,53
2021-06-20,1,63
2021-06-21,2,60
2021-06-22,3,65
2021-06-23,1,57
2021-06-24,1,68
2021-06-25,0,66
2021-06-26,0,55
2021-06-27,1,56
2021-06-28,0,60
2021-06-29,0,61
2021-06-30,0,61
2021-07-01,0,61
2021-07-02,1,60
2021-07-03,1,61
2021-07-04,1,63
2021-07-05,1,59
2021-07-06,3,59
2021-07-07,0,61
2021-07-08,0,47
2021-07-09,0,64
2021-07-10,0,47
2021-07-11,0,51
2021-07-12,1,51
2021-07-13,0,53
2021-07-14,1,49
2021-07-15,3,53
2021-07-16,0,49
2021-07-17,0,53
2021-07-18,0,1
2021-07-19,0,13
2021-07-20,0,49
2021-07-21,0,52
2021-07-22,0,47
2021-07-23,1,51
2021-07-24,0,55
2021-07-25,0,44
2021-07-26,0,49
2021-07-27,0,52
2021-07-28,0,57
2021-07-29,0,52
2021-07-30,0,42
2021-07-31,0,47
2021-08-01,0,52
2021-08-02,1,51
2021-08-03,0,52
2021-08-04,0,56
2021-08-05,0,50
2021-08-06,3,56
2021-08-07,1,55
2021-08-08,0,48
2021-08-09,1,52
2021-08-10,0,50
2021-08-11,1,51
2021-08-12,0,43
2021-08-13,0,51
2021-08-14,1,45
2021-08-15,0,49
2021-08-16,1,41
2021-08-17,0,54
2021-08-18,0,54
2021-08-19,0,53
2021-08-20,0,48
2021-08-21,1,46
2021-08-22,0,59
2021-08-23,1,53
2021-08-24,1,59
2021-08-25,1,46
2021-08-26,0,52